DELTA 1 DEB, 42659

Orbit data source: Space-Track

DELTA 1 DEB, 42659 is space debris in SSO originally from a launch on Thu, 12 Jun 1975 UTC launched from the Air Force Western Test Range (AFWTR). Debris objects in space refer to the collection of defunct objects orbiting the Earth. Examples of debris include non-operational satellites, rocket bodies, and fragments generated from explosions, collisions, or faulty payload assembly.

Loading next visibility...
Identifier
42659, 1975-052MU
Orbit
SSO
Last TLE update
15 hours ago
Origin
Manufacturer
Unknown
Mission
Spacecraft
Bus & Motor
Unknown
Mass
Unknown
Launch date (UTC)
1975-06-12 (50 years ago)
Launch vehicle
Unknown
Launch site
Air Force Western Test Range (AFWTR)
Object type
Payload
Rocket body
Debris
Shape & HBR
Unknown
Radar Cross Section
Small (<0.1 m²)

Expand to show TLE details & history

TLE from 15 hours ago
0 DELTA 1 DEB
1 42659U 75052MU  25181.54437794  .00004110  00000-0  38627-3 0  9990
2 42659  98.1822 288.7382 0002256  80.2138 336.3400 14.94509902754179
Epoch: 2025-06-30T13:03Z
TLE epoch observation values (Epoch: 2025-06-30T13:03:54.253Z)
Latitude
55.77412°
Longitude
161.77447°
Altitude
591.747 km
Speed
7.57 km/s
True Right ascension
18h 26m 24s
True Declination
55° 36' 37"
Sunlit
Object was in daylight at epoch
Visualization orbit readout
Latitude
5.82601°
Longitude
-4.60386°
Altitude
586.503 km
Speed
7.567 km/s
Apparent Right ascension
05h 51m 09s
Apparent Declination
-17° 44' 27"
Sunlit
Object is in daylight
Visualization observer readout
Local Sidereal Time
15:40:27
Azimuth
298.635° NW
Elevation
-54.139°
Doppler factor
1
Orbital elements
Apogee altitude
582.499 km
Perigee altitude
579.359 km
Semi-major axis
6,959.066 km
Eccentricity
0.00023
Inclination
98.1822°
RAAN
288.7382°
Arg. of periapsis
80.2138°
True anomaly
Unknown
Mean anomaly
336.34°
Eccentric anomaly
Unknown
Mean motion
3.73867 °/min
Orbital period
96.29 mins
BSTAR
0.00038627
Loading maneuver chart data...
Loading SW <> Apogee altitude chart data...
Loading historical data...
Loading historical data...
Loading historical data...
Loading historical data...
Loading historical data...
Loading historical data...
Loading historical data...

DELTA 1 DEB Visibility forecast

Observer location: undefined°, undefined°

Span
Click to sort rows by Start time (UTC) header in descending order
Start Az.
Max El. time (UTC)
Max El. Az.
Max El.
End time (UTC)
End Az.
7 mins2025-07-01 06:37:03.734Z136.952° SSE2025-07-01 06:41:03.734Z53.946° ENE30.131°2025-07-01 06:44:03.734Z5.795° NNE
7 mins2025-07-01 19:55:03.734Z20.68° NNE2025-07-01 19:58:03.734Z101.905° ESE42.989°2025-07-01 20:02:03.734Z185.717° SSW
|